Date String (YYYY-MM-DD hh:mm:ss) UTC,Instrument flags,absolute air pressure of the measurement (hPa),sample flow rate (lpm),inlet stack bypass flow (lpm),air temperature of the measurement (°C),ambient temperature measured by the external sensor (°C),aerosol sample conditioner tube jacket temperature (°C),OPC LED temperature (°C),internal box temperature (°C),relative humidity of the measurement (%),span deviation,mass concentration of particles derived from Lorenz-Mie calculation of OPC scattering (μg/m³),mass concentration of particles derived from Lorenz-Mie calculation of OPC scattering (μg/m³),mass concentration of particles derived from Lorenz-Mie calculation of OPC scattering (μg/m³)
DateTimeUTC,F1_M11,P_M11,Q1_M11,Q2_M11,T1_M11,T2_M11,T3_M11,T4_M11,T5_M11,U1_M11,ZSPAN_M11,X2_M11,X0_M11,X1_M11
2023-08-07 15:00:00,SystemResetWarning,0834.1,5.00,000.00,029.9,028.6,000.0,038.5,031.5,29.5,-001.7,0008.02,0012.35,0007.56
2023-08-07 15:01:00,SystemResetWarning,0834.1,5.00,000.00,030.0,028.6,000.0,038.5,031.5,29.5,-001.6,0008.01,0012.08,0007.54
2023-08-07 15:02:00,SystemResetWarning,0834.1,5.00,000.00,030.0,028.7,000.0,038.5,031.6,29.6,-001.6,0008.03,0011.71,0007.55
2023-08-07 15:03:00,SystemResetWarning,0834.2,5.00,000.00,030.0,028.7,000.0,038.5,031.6,29.8,-001.3,0008.03,0011.70,0007.57
2023-08-07 15:04:00,SystemResetWarning,0834.2,5.00,000.00,030.0,028.4,000.0,038.5,031.6,29.3,-001.4,0008.08,0012.45,0007.59
2023-08-07 15:05:00,SystemResetWarning,0834.2,4.99,000.00,030.0,026.8,000.0,038.4,031.4,29.3,-001.1,0008.12,0012.17,0007.62
2023-08-07 15:06:00,SystemResetWarning,0834.2,5.01,000.00,029.9,025.7,000.0,038.2,031.1,29.2,-001.2,0008.15,0012.19,0007.65
2023-08-07 15:07:00,SystemResetWarning,0834.2,5.01,000.00,029.8,025.7,000.0,038.2,030.9,29.1,-001.0,0008.22,0012.21,0007.73
2023-08-07 15:08:00,SystemResetWarning,0834.2,5.00,000.00,029.7,026.0,000.0,038.3,030.9,29.6,-000.7,0008.33,0012.33,0007.81
2023-08-07 15:09:00,SystemResetWarning,0834.4,4.99,000.00,029.6,026.4,000.0,038.3,030.9,30.1,-000.5,0008.31,0012.29,0007.79
2023-08-07 15:10:00,SystemResetWarning,0834.4,5.00,000.00,029.6,026.7,000.0,038.3,031.0,29.9,-000.5,0008.25,0012.10,0007.77
2023-08-07 15:11:00,SystemResetWarning,0834.3,5.00,000.00,029.6,027.0,000.0,038.3,031.0,30.4,-000.4,0008.28,0012.14,0007.79
2023-08-07 15:12:00,SystemResetWarning,0834.3,5.00,000.00,029.6,027.3,000.0,038.3,031.1,30.6,-000.3,0008.33,0012.21,0007.84
2023-08-07 15:13:00,SystemResetWarning,0834.5,4.99,000.00,029.6,027.5,000.0,038.3,031.1,31.0,-000.4,0008.36,0012.27,0007.86
2023-08-07 15:14:00,SystemResetWarning,0834.4,4.99,000.00,029.6,027.7,000.0,038.3,031.1,31.6,-000.6,0008.40,0012.32,0007.90
2023-08-07 15:15:00,SystemResetWarning,0834.3,5.00,000.00,029.6,027.8,000.0,038.3,031.1,31.5,0000.1,0008.39,0012.35,0007.91
2023-08-07 15:16:00,SystemResetWarning,0834.4,5.00,000.00,029.6,027.9,000.0,038.3,031.1,31.1,-000.1,0008.41,0012.63,0007.92
2023-08-07 15:17:00,SystemResetWarning,0834.5,5.01,000.00,029.6,028.0,000.0,038.2,031.1,31.1,0000.0,0008.45,0012.74,0007.93
2023-08-07 15:18:00,SystemResetWarning,0834.4,5.01,000.00,029.6,028.1,000.0,038.2,031.2,31.3,-000.1,0008.44,0012.91,0007.90
2023-08-07 15:19:00,SystemResetWarning,0834.3,5.00,000.00,029.6,028.2,000.0,038.2,031.2,31.5,-000.4,0008.40,0012.88,0007.88
2023-08-07 15:20:00,SystemResetWarning,0834.4,5.00,000.00,029.7,028.3,000.0,038.2,031.2,31.2,-000.7,0008.39,0013.15,0007.89
2023-08-07 15:21:00,SystemResetWarning,0834.4,4.99,000.00,029.7,028.3,000.0,038.3,031.3,30.6,-000.8,0008.40,0013.22,0007.89
2023-08-07 15:22:00,SystemResetWarning,0834.4,5.00,000.00,029.7,028.4,000.0,038.3,031.3,30.8,-000.9,0008.38,0013.22,0007.85
2023-08-07 15:23:00,SystemResetWarning,0834.4,5.00,000.00,029.7,028.4,000.0,038.3,031.3,31.0,-001.0,0008.36,0013.25,0007.83
2023-08-07 15:24:00,SystemResetWarning,0834.4,5.00,000.00,029.7,028.4,000.0,038.3,031.3,32.4,-001.0,0008.37,0013.35,0007.81
2023-08-07 15:25:00,SystemResetWarning,0834.3,5.01,000.00,029.7,028.5,000.0,038.3,031.3,32.2,-000.8,0008.35,0013.35,0007.78
2023-08-07 15:26:00,SystemResetWarning,0834.3,5.00,000.00,029.8,028.5,000.0,038.3,031.4,31.5,-001.0,0008.29,0012.46,0007.72
2023-08-07 15:27:00,SystemResetWarning,0834.3,5.00,000.00,029.8,028.5,000.0,038.3,031.4,31.7,-001.2,0008.18,0011.96,0007.64
2023-08-07 15:28:00,SystemResetWarning,0834.3,5.00,000.00,029.8,028.5,000.0,038.3,031.4,30.7,-001.2,0008.07,0011.71,0007.56
2023-08-07 15:29:00,SystemResetWarning,0834.4,5.00,000.00,029.8,028.6,000.0,038.3,031.4,31.1,-001.1,0007.99,0011.49,0007.48
2023-08-07 15:30:00,SystemResetWarning,0834.5,5.00,000.00,029.8,028.3,000.0,038.3,031.4,30.5,-001.2,0007.88,0011.31,0007.39
2023-08-07 15:31:00,SystemResetWarning,0834.5,4.98,000.00,029.8,026.6,000.0,038.2,031.2,30.5,-001.2,0007.80,0010.95,0007.29
2023-08-07 15:32:00,SystemResetWarning,0834.5,5.01,000.00,029.7,025.3,000.0,038.1,031.0,30.8,-000.8,0007.75,0010.86,0007.22
2023-08-07 15:33:00,SystemResetWarning,0834.3,5.01,000.00,029.6,025.3,000.0,038.0,030.8,31.4,-000.8,0007.71,0010.85,0007.18
2023-08-07 15:34:00,SystemResetWarning,0834.1,5.00,000.00,029.5,025.6,000.0,038.0,030.6,32.1,-001.0,0007.69,0010.86,0007.17
2023-08-07 15:35:00,SystemResetWarning,0834.1,4.99,000.00,029.4,026.0,000.0,038.1,030.7,31.9,-001.2,0007.68,0010.75,0007.18
2023-08-07 15:36:00,SystemResetWarning,0834.2,5.00,000.00,029.4,026.4,000.0,038.1,030.8,31.6,-001.2,0007.68,0010.82,0007.17
2023-08-07 15:37:00,SystemResetWarning,0834.3,5.00,000.00,029.4,026.7,000.0,038.1,030.8,30.7,-001.2,0007.68,0010.75,0007.17
2023-08-07 15:38:00,SystemResetWarning,0834.4,5.00,000.00,029.4,027.0,000.0,038.1,030.9,30.1,-001.2,0007.68,0010.73,0007.16
2023-08-07 15:39:00,SystemResetWarning,0834.3,5.00,000.00,029.4,027.3,000.0,038.1,030.9,30.5,-001.4,0007.72,0010.77,0007.21
2023-08-07 15:40:00,SystemResetWarning,0834.2,5.00,000.00,029.4,027.5,000.0,038.1,031.0,30.4,-001.5,0007.76,0010.77,0007.27
2023-08-07 15:41:00,SystemResetWarning,0834.0,5.00,000.00,029.4,027.7,000.0,038.1,031.0,30.2,-001.5,0007.81,0010.83,0007.31
2023-08-07 15:42:00,SystemResetWarning,0834.0,5.00,000.00,029.4,027.8,000.0,038.1,031.0,29.4,-001.1,0007.87,0010.94,0007.37
2023-08-07 15:43:00,SystemResetWarning,0834.0,5.01,000.00,029.5,027.9,000.0,038.1,031.1,28.7,-001.0,0007.90,0010.95,0007.42
2023-08-07 15:44:00,SystemResetWarning,0834.1,5.01,000.00,029.5,028.0,000.0,038.1,031.1,30.3,-001.2,0007.98,0011.08,0007.49
2023-08-07 15:45:00,SystemResetWarning,0834.4,5.01,000.00,029.5,028.1,000.0,038.1,031.1,31.6,-001.3,0008.03,0011.11,0007.53
2023-08-07 15:46:00,SystemResetWarning,0834.3,5.00,000.00,029.5,028.2,000.0,038.1,031.2,32.0,-001.1,0008.06,0011.15,0007.55
2023-08-07 15:47:00,SystemResetWarning,0834.2,4.99,000.00,029.5,028.3,000.0,038.1,031.2,31.6,-001.1,0008.09,0011.14,0007.58
2023-08-07 15:48:00,SystemResetWarning,0834.1,4.99,000.00,029.6,028.3,000.0,038.1,031.2,31.7,-001.4,0008.11,0011.29,0007.61
2023-08-07 15:49:00,SystemResetWarning,0833.9,5.00,000.00,029.6,028.4,000.0,038.1,031.3,30.5,-001.4,0008.20,0011.66,0007.67
2023-08-07 15:50:00,SystemResetWarning,0833.9,5.00,000.00,029.6,027.8,000.0,038.1,031.2,29.4,-001.4,0008.22,0011.87,0007.68
2023-08-07 15:51:00,SystemResetWarning,0833.9,5.00,000.00,029.6,026.1,000.0,037.9,030.9,30.3,-001.2,0008.22,0012.01,0007.67
2023-08-07 15:52:00,SystemResetWarning,0834.0,5.00,000.00,029.5,025.2,000.0,037.8,030.8,31.3,-001.2,0008.26,0012.11,0007.67
2023-08-07 15:53:00,SystemResetWarning,0834.1,5.01,000.00,029.4,025.3,000.0,037.8,030.6,32.8,-001.7,0008.25,0012.09,0007.67
2023-08-07 15:54:00,SystemResetWarning,0834.1,5.01,000.00,029.3,025.6,000.0,037.9,030.6,32.4,-001.7,0008.27,0012.38,0007.70
2023-08-07 15:55:00,SystemResetWarning,0834.1,5.00,000.00,029.3,026.1,000.0,037.9,030.6,31.5,-001.1,0008.26,0012.35,0007.72
2023-08-07 15:56:00,SystemResetWarning,0834.1,5.00,000.00,029.3,026.5,000.0,037.9,030.7,30.9,-000.9,0008.25,0012.30,0007.70
2023-08-07 15:57:00,SystemResetWarning,0834.1,4.99,000.00,029.3,026.8,000.0,037.9,030.8,30.2,-001.1,0008.24,0012.29,0007.67
2023-08-07 15:58:00,SystemResetWarning,0834.1,4.99,000.00,029.3,027.1,000.0,037.9,030.8,30.5,-001.0,0008.20,0012.21,0007.64
2023-08-07 15:59:00,SystemResetWarning,0834.2,5.00,000.00,029.3,027.4,000.0,037.9,030.9,30.8,-000.8,0008.12,0011.94,0007.57
